Regional Weather Roundup
Issued by NWS

Home | Current Version | Previous Version | Text Only | Print | Product List | Glossary On
Versions: 1 2 3 4 5 6 7 8 9 10 11 12 13 14 15 16 17 18 19 20 21 22 23 24 25 26 27 28 29 30 31 32 33 34 35 36 37 38 39 40 41 42 43 44 45 46 47 48 49 50
000
ASUS43 KMKX 080121
RWRWI

WISCONSIN REGIONAL WEATHER ROUNDUP
NATIONAL WEATHER SERVICE MILWAUKEE/SULLIVAN WI
700 PM CST SUN FEB 07 2016

NOTE: "FAIR" INDICATES FEW OR NO CLOUDS BELOW 12,000 FEET WITH NO
SIGNIFICANT WEATHER AND/OR OBSTRUCTIONS TO VISIBILITY.

WIZ001-002-006>008-014>016-023>028-080200-
NORTHWEST WISCONSIN

CITY           SKY/WX    TMP DP  RH WIND       PRES   REMARKS
SUPERIOR ARPT  FLURRIES  30  25  81 NW18      29.60R WCI  18
ASHLAND        FLURRIES  33  31  92 W14G22    29.54R WCI  23
HAYWARD        LGT SNOW  29  26  89 VRB6      29.57R FOG     WCI  23
SIREN          LGT SNOW  27  24  88 NW10      29.63R WCI  17
CUMBERLAND     LGT SNOW  28  27  93 NW16G26   29.59S WCI  17
RICE LAKE      LGT SNOW  31  28  90 W12G17    29.61R WCI  21
CHETEK         LGT SNOW  31  30  95 NW10G18   29.59R WCI  23
LADYSMITH      LGT SNOW  34  32  90 SW9       29.57F WCI  27
EAU CLAIRE     CLOUDY    36  28  73 SW12      29.59F WCI  28
MENOMONIE      CLOUDY    37  29  74 W22G30    29.61S WCI  26
NEW RICHMOND   LGT SNOW  28  25  89 W17G28    29.66R WCI  15
OSCEOLA        LGT SNOW  27  22  83 NW22G31   29.70R WCI  12
$$

WIZ003>005-009-010-017-018-080200-
NORTH CENTRAL WISCONSIN

CITY           SKY/WX    TMP DP  RH WIND       PRES   REMARKS
MANITOWISH WTR LGT SNOW  32  32 100 SW5       29.51S WCI  27
ARBOR VITAE    LGT SNOW  34  32  92 SW5       29.52F WCI  30
WOODRUFF       LGT SNOW  34  32  92 SW5       29.52F WCI  30
RHINELANDER    CLOUDY    33  28  81 SW8       29.54S WCI  26
EAGLE RIVER    FLURRIES  32  31  96 SW8       29.51F WCI  25
LAND O LAKES   LGT SNOW  33  32  98 CALM      29.52S
PHILLIPS       LGT SNOW  32  31  97 SW6       29.53S WCI  26
TOMAHAWK       CLOUDY    33  28  82 CALM      29.55F
MEDFORD        FLURRIES  34  27  77 W8        29.56S WCI  27
MERRILL        CLOUDY    35  27  72 W12       29.57S WCI  27
$$

WIZ029-030-035-036-043>047-080200-
CENTRAL WISCONSIN

CITY           SKY/WX    TMP DP  RH WIND       PRES   REMARKS
WAUSAU         CLOUDY    37  26  64 W10       29.56S WCI  30
MOSINEE        CLOUDY    36  27  69 W6        29.59S WCI  31
MARSHFIELD     CLOUDY    36  25  64 SW7       29.58S WCI  30
STEVENS POINT  CLOUDY    35  24  64 SW9       29.60F WCI  28
WAUPACA        MOCLDY    38  28  65 SW8       29.62S WCI  32
WAUTOMA        CLOUDY    37  27  68 SW7       29.64S WCI  31
WISC RAPIDS    CLOUDY    37  23  56 W9        29.62F WCI  30
CAMP DOUGLAS   CLOUDY    37  31  79 SW6       29.63F WCI  32
$$

WIZ011>013-019>022-031-037>040-048>050-080200-
NORTHEAST WISCONSIN

CITY           SKY/WX    TMP DP  RH WIND       PRES   REMARKS
ANTIGO         CLOUDY    34  28  79 SW10      29.56F WCI  26
SHAWANO        CLOUDY    39  30  69 CALM      29.60S
OCONTO         CLOUDY    37  30  76 CALM      29.60S
STURGEON BAY   CLOUDY    36  28  75 S8        29.62F WCI  29
GREEN BAY      CLOUDY    37  30  75 S5        29.61S WCI  33
MANITOWOC      CLOUDY    39  30  70 SW6       29.63F WCI  35
APPLETON       CLOUDY    37  27  65 SW10      29.60S WCI  30
CLINTONVILLE   CLOUDY    37  28  70 SW7       29.61R WCI  32
OSHKOSH        PTCLDY    37  26  64 SW8       29.63S WCI  31
$$

WIZ032>034-041-042-053>061-080200-
SOUTHWEST WISCONSIN

CITY           SKY/WX    TMP DP  RH WIND       PRES   REMARKS
LA CROSSE      CLOUDY    37  28  70 W13G23    29.66F WCI  29
SPARTA         CLOUDY    37  28  71 SW5       29.65F WCI  33
VIROQUA        CLOUDY    35  28  78 W16       29.66S WCI  25
BOSCOBEL       CLEAR     37  29  72 SW9       29.71F WCI  30
PRAIRIE DU CHI CLOUDY    36  27  69 W9        29.72S WCI  29
PLATTEVILLE    CLEAR     33  30  86 SW12      29.72F WCI  25
$$

WIZ056-057-062-063-064-067-068-080200-
SOUTH CENTRAL WISCONSIN

CITY           SKY/WX    TMP DP  RH WIND       PRES   REMARKS
REEDSBURG      CLOUDY    36  28  71 SW10      29.67S WCI  29
BARABOO/DELLS  CLOUDY    36  26  67 W9        29.66S WCI  29
LONE ROCK      CLEAR     37  26  64 W9        29.70S WCI  30
MINERAL POINT  CLOUDY    36  30  80 SW10      29.70S WCI  28
MADISON        MOCLDY    35  26  69 SW5       29.68S WCI  31
MIDDLETON      PTCLDY    37  28  69 SW8       29.69S WCI  31
WATERTOWN      CLOUDY    35  27  73 SW10G16   29.68S WCI  27
MONROE         PTCLDY    34  30  86 SW15G21   29.71F WCI  24
JANESVILLE     PTCLDY    37  28  70 SW12      29.72S WCI  30
$$

WIZ051-052-058>065-066-070>072-080200-
SOUTHEAST WISCONSIN

CITY           SKY/WX    TMP DP  RH WIND       PRES   REMARKS
MILWAUKEE      PTCLDY    38  26  62 W14       29.69S WCI  30
WAUKESHA       CLEAR     34  25  69 SW12      29.69S WCI  25
MILWAUKEE/TIMM NOT AVBL
RACINE         CLEAR     38  26  62 W10       29.71S WCI  31
BURLINGTON     CLEAR     34  26  72 SW10G16   29.70F WCI  26
KENOSHA        CLEAR     36  27  69 W12       29.70S WCI  28
FOND DU LAC    CLEAR     36  27  69 SW9       29.65R WCI  29
SHEBOYGAN      PTCLDY    35  29  78 SW10      29.65S WCI  27
WEST BEND      CLEAR     34  27  75 SW8       29.66S WCI  27
JUNEAU         CLEAR     34  27  77 SW10      29.67S WCI  26
$$

LSZ147-162-080200-
LAKE SUPERIOR

STATION/POSITION TIME  TEMP    WIND        PRES    WAVE
                       AIR SEA DIR/SP/G            HT/PER
                 (UTC) (F)     (DEG/KT/KT) (MB)    (FT/S)
DEVILS ISLAND    0100   32      40/ 21/ 24 1000.1R
PORT WING        0000   33     260/ 10/ 15 1000.7R
SAXON HARBOR     0040   35                  999.7S
$$

LMZ867-665-643>646-080200-
LAKE MICHIGAN

STATION/POSITION TIME  TEMP    WIND        PRES    WAVE
                       AIR SEA DIR/SP/G            HT/PER
                 (UTC) (F)     (DEG/KT/KT) (MB)    (FT/S)
CHAMBERS ISLAND  0000   37     190/  6/ 11 1003.0R
NORTHPORT PIER   0000   38      CALM  /  3 1002.7R
KEWAUNEE LAKESHO 0100   38                 1002.4F
SHEBOYGAN LAKESH 0100   39     220/ 12/ 13 1004.7F
PORT WASHINGTON  0000   40     240/  4/  9 1005.8
MILWAUKEE LAKESH 0110   39     240/ 12/ 15   N/A
KENOSHA   LAKESH 0100   39     260/  9/ 17 1006.1S
$$

TC  - TEMPERATURE IN CELSIUS
VSB - VISIBILITY IN STATUTE MILES
WCI - WIND CHILL INDEX
HX  - HEAT INDEX




USA.gov is the U.S. government's official web portal to all federal, state and local government web resources and services.